Location: Red n Blue Observatory
(38.4831°N, 87.0953°W)
Time: 14:09:40
(UTC-04:00)

BlueWalker 3 - Pass Details

Date: 17 September 2024
Orbit: 472 x 485 km, 53.2° (Epoch: 11 October)

Event Time Altitude Azimuth Distance (km) Brightness Sun altitude
Rises 20:27:35 0° 304° (NW) 2,547 6.8 -7.7°
Reaches altitude 10° 20:29:51 10° 296° (WNW) 1,668 6.0 -8.1°
Maximum altitude 20:33:20 37° 228° (SW) 774 3.3 -8.8°
Drops below altitude 10° 20:36:50 10° 160° (SSE) 1,668 4.3 -9.5°
Enters shadow 20:38:46 - 153° (SSE) 2,417 5.0 -9.9°
